This demonstration page uses our WeatherBlox Daily Observations layout. Learn more.

Left ArrowRight Arrow

Hourly Observations for January 24, 2017

Temp ( °F °C ) Dew Point ( °F °C ) Humidity (%) Winds ( mph kmh ) Pressure ( in mb ) Visibility ( mi km ) Precip ( " mm )
12:11 am 00:11 Cloudy with Mist and Fog 33 0.6 32 0 96 96 ESE 12 19 29.77 1008 3 4 0.00 0.00
12:53 am 00:53 Cloudy with Mist and Fog 32 0 31 -0.6 96 96 ESE 12 19 29.71 1006 3 4 0.00 0.00
1:23 am 01:23 Cloudy with Mist and Fog 33 0.6 32 0 96 96 ESE 13 20 29.77 1008 3 5 0.00 0.00
1:53 am 01:53 Cloudy with Mist and Fog 33 0.6 31 -0.6 92 92 E 12 19 29.68 1005 3 4 0.00 0.00
2:17 am 02:17 Cloudy with Mist and Fog 32 0 31 -0.6 96 96 E 14 22 29.74 1007 3 5 0.00 0.00
2:27 am 02:27 Cloudy with Mist and Fog 32 0 30 -1 93 93 E 13 20 29.74 1007 3 4 0.00 0.00
2:36 am 02:36 Cloudy with Mist and Fog 32 0 30 -1 93 93 E 13 20 29.74 1007 3 5 0.00 0.00
2:53 am 02:53 Mostly Cloudy with Mist and Fog 32 0 31 -0.6 96 96 E 12 19 29.68 1005 3 5 0.00 0.00
3:36 am 03:36 Cloudy with Mist and Fog 32 0 30 -1 93 93 E 12 19 29.71 1006 4 6 0.00 0.00
3:48 am 03:48 Cloudy with Mist and Fog 32 0 30 -1 93 93 E 10 17 29.74 1007 4 6 0.00 0.00
3:53 am 03:53 Cloudy with Mist and Fog 32 0 30 -1.1 92 92 E 10 17 29.69 1005 4 6 0.00 0.00
4:53 am 04:53 Cloudy with Mist and Fog 32 0 30 -1.1 92 92 E 15 24 29.62 1003 4 6 0.00 0.00
5:07 am 05:07 Cloudy with Mist and Fog 32 0 30 -1.1 92 92 E 16 26 29.68 1005 5 8 0.00 0.00
5:53 am 05:53 Mostly Cloudy with Mist and Fog 32 0 30 -1.1 92 92 E 14 22 29.62 1003 5 8 0.00 0.00
6:53 am 06:53 Mostly Cloudy with Mist and Fog 32 0 29 -1.7 88 88 E 17 28 29.61 1003 5 8 0.00 0.00
7:53 am 07:53 Cloudy with Mist and Fog 32 0 29 -1.7 88 88 E 18 30 29.60 1003 6 10 0.00 0.00
8:17 am 08:17 Cloudy with Mist and Fog 31 -0.6 29 -1.7 92 92 E 16 26 29.65 1004 3 5 0.00 0.00
8:53 am 08:53 Cloudy with Mist and Fog 31 -0.6 29 -1.7 92 92 E 16 26 29.60 1002 3 5 0.00 0.00
9:53 am 09:53 Cloudy with Mist and Fog 31 -0.6 29 -1.7 92 92 E 20 31 29.59 1002 4 6 0.00 0.00
10:42 am 10:42 Cloudy with Mist and Fog 32 0 29 -1.7 88 88 E 15 24 29.65 1004 5 8 0.00 0.00
10:53 am 10:53 Cloudy with Mist and Fog 31 -0.6 29 -1.7 92 92 E 12 19 29.60 1002 5 8 0.00 0.00
11:32 am 11:32 Cloudy with Mist and Fog 30 -1 28 -2 93 93 E 17 28 29.62 1003 5 8 0.00 0.00
11:53 am 11:53 Cloudy with Mist and Fog 31 -0.6 29 -1.7 92 92 E 12 19 29.57 1001 5 8 0.00 0.00
12:53 pm 12:53 Cloudy with Mist and Fog 31 -0.6 29 -1.7 92 92 E 12 19 29.53 1000 3 5 0.00 0.00
1:31 pm 13:31 Cloudy with Mist and Fog 31 -0.6 30 -1.1 96 96 ENE 7 11 29.59 1002 3 4 0.00 0.00
1:53 pm 13:53 Cloudy with Mist and Fog 31 -0.6 30 -1.1 96 96 E 8 13 29.53 1000 3 4 0.00 0.00
2:15 pm 14:15 Cloudy with Light Wintry Mix 31 -0.6 30 -1.1 96 96 ENE 9 15 29.59 1002 2 2 0.00 0.03
2:53 pm 14:53 Cloudy with Mist and Fog 31 -0.6 30 -1.1 96 96 ENE 12 19 29.52 1000 1 2 0.00 0.03
3:29 pm 15:29 Cloudy with Mist and Fog 31 -0.6 30 -1.1 96 96 NE 9 15 29.59 1002 1 2 0.00 0.00
3:46 pm 15:46 Cloudy with Light Freezing Rain 30 -1 30 -1 100 100 NNE 10 17 29.59 1002 1 2 0.00 0.00
3:53 pm 15:53 Cloudy with Light Freezing Rain 31 -0.6 30 -1.1 96 96 NNE 9 15 29.55 1001 1 2 0.00 0.03
4:18 pm 16:18 Cloudy with Mist and Fog 30 -1 30 -1 100 100 NNE 9 15 29.59 1002 1 2 0.00 0.00
4:28 pm 16:28 Cloudy with Mist and Fog 31 -0.6 30 -1.1 96 96 NNE 9 15 29.59 1002 2 3 0.00 0.03
4:34 pm 16:34 Cloudy with Mist and Fog 30 -1 30 -1 100 100 NNE 9 15 29.62 1003 2 3 0.00 0.00
4:53 pm 16:53 Cloudy with Mist and Fog 31 -0.6 30 -1.1 96 96 NNE 9 15 29.57 1001 3 5 0.00 0.03
5:53 pm 17:53 Cloudy with Mist and Fog 31 -0.6 29 -1.7 92 92 N 8 13 29.58 1002 6 10 0.00 0.00
6:30 pm 18:30 Cloudy 30 -1 30 -1 100 100 NNW 7 11 29.65 1004 7 11 0.00 0.00
6:41 pm 18:41 Cloudy with Mist and Fog 31 -0.6 30 -1.1 96 96 NNW 7 11 29.65 1004 6 10 0.00 0.00
6:53 pm 18:53 Cloudy with Mist and Fog 31 -0.6 30 -1.1 96 96 NNW 8 13 29.62 1003 6 10 0.00 0.00
7:53 pm 19:53 Cloudy 31 -0.6 29 -1.7 92 92 NNW 10 17 29.64 1004 8 13 0.00 0.00
8:53 pm 20:53 Cloudy 31 -0.6 29 -1.7 92 92 NNW 13 20 29.65 1004 8 13 0.00 0.00
9:18 pm 21:18 Cloudy with Light Freezing Rain 30 -1 28 -2 93 93 NW 13 20 29.71 1006 4 6 0.00 0.00
9:33 pm 21:33 Cloudy with Mist and Fog 31 -0.6 29 -1.7 92 92 NW 10 17 29.71 1006 6 10 0.00 0.03
9:53 pm 21:53 Cloudy with Mist and Fog 31 -0.6 29 -1.7 92 92 NNW 12 19 29.67 1005 6 10 0.00 0.03
10:53 pm 22:53 Cloudy with Mist and Fog 31 -0.6 29 -1.7 92 92 NNW 16 26 29.68 1005 3 5 0.00 0.00
11:00 pm 23:00 Cloudy with Light Freezing Rain 30 -1 28 -2 93 93 NNW 18 30 29.71 1006 4 6 0.00 0.00
11:13 pm 23:13 Cloudy 30 -1 28 -2 93 93 NNW 17 28 29.77 1008 10 16 0.00 0.00
11:53 pm 23:53 Cloudy 30 -1.1 27 -2.8 88 88 NNW 18 30 29.71 1006 10 16 0.00 0.03

Powered by AerisWeather